Terug naar catalogus

SL-8 DEB

ActiefLEO
NORAD 27748·DEBRIS·🇷🇺 Russia

Gelanceerd Feb 12, 1991 vanaf Plesetsk Cosmodrome

Loading…

Volgende Passages (komende 24 uur)

TLE

VersSource: Space-Track

Epoch: Sep 14, 2026, 00:33 UTC

1 27748U 91009DD  26257.02339597  .00000051  00000-0  60769-3 0  9994
2 27748  74.0486 116.0288 0174629 171.7861 340.9925 12.19647137304465

Volg SL-8 DEB in realtime met AllMySat

Download on the App Store